Weather History for KMOP - June, 2013

Change the Weather History Date:

Monday, June 24, 2013

  Actual Average (KAMN) Record (KAMN)
Temperature  
Mean Temperature 76 °F -  
Max Temperature 84 °F 78 °F 92 °F (1966)
Min Temperature 68 °F 56 °F 42 °F (1961)
Cooling Degree Days 11    
Growing Degree Days 26 (Base 50)    
Moisture  
Dew Point 64 °F    
Average Humidity 65    
Maximum Humidity 84    
Minimum Humidity 46    
Precipitation  
Precipitation 0.00 in - - ()
Sea Level Pressure  
Sea Level Pressure 29.97 in    
Wind  
Wind Speed 6 mph (SW)    
Max Wind Speed 17 mph    
Max Gust Speed 21 mph    
Visibility 10 miles    
Events      
Averages and records for this station are not official NWS values.
T = Trace of Precipitation, MM = Missing Value Source: NWS Daily Summary

Daily Weather History Graph

Daily Weather History Graph

Search for Another Location

Airport or City:

Trip Planner

Search our weather history database for the weather conditions in past years. The results will help you decide how hot, cold, wet, or windy it might be!

Date:

Astronomy

Jun. 24, 2013 Rise Set
Actual Time 5:58 AM EDT 9:24 PM EDT
Civil Twilight 5:22 AM EDT 10:00 PM EDT
Nautical Twilight 4:35 AM EDT 10:47 PM EDT
Astronomical Twilight 3:35 AM EDT 11:46 PM EDT
Moon 10:21 PM EDT (6/24) 7:28 AM EDT (6/24)
Length of Visible Light 16h 37m
Length of Day
15h 26m
Full, 98% of the Moon is Illuminated
Jun 24
Full
Jun 30
Last Quarter
Jul 8
New
Jul 15
First Quarter
Jul 22
Full

Hourly Weather History & Observations

Time (EDT) Temp. Heat Index Dew Point Humidity Pressure Visibility Wind Dir Wind Speed Gust Speed Precip Events Conditions
12:17 AM 73.8 °F - 66.2 °F 77% 30.00 in 10.0 mi Calm Calm - N/A   Clear
12:37 AM 74.3 °F - 65.7 °F 74% 30.00 in 10.0 mi Calm Calm - N/A   Clear
12:57 AM 74.7 °F - 65.7 °F 73% 30.00 in 10.0 mi Calm Calm - N/A   Clear
1:17 AM 75.2 °F - 65.7 °F 72% 29.98 in 10.0 mi SW 5.8 mph - N/A   Clear
1:36 AM 75.0 °F - 65.7 °F 73% 29.98 in 10.0 mi WSW 5.8 mph - N/A   Clear
1:57 AM 74.3 °F - 65.8 °F 75% 29.99 in 10.0 mi WSW 4.6 mph - N/A   Clear
2:17 AM 73.9 °F - 65.8 °F 76% 29.99 in 10.0 mi SW 4.6 mph - N/A   Clear
2:36 AM 73.9 °F - 66.0 °F 76% 29.99 in 10.0 mi SW 5.8 mph - N/A   Clear
2:57 AM 74.3 °F - 65.8 °F 75% 29.99 in 10.0 mi WSW 4.6 mph - N/A   Clear
3:17 AM 74.3 °F - 65.8 °F 75% 30.00 in 10.0 mi SW 6.9 mph - N/A   Clear
3:37 AM 74.5 °F - 65.5 °F 73% 29.99 in 10.0 mi WSW 4.6 mph - N/A   Clear
3:57 AM 74.3 °F - 65.3 °F 73% 29.99 in 10.0 mi SW 4.6 mph - N/A   Clear
4:16 AM 73.4 °F - 65.3 °F 76% 30.00 in 10.0 mi WSW 4.6 mph - N/A   Clear
4:37 AM 73.4 °F - 65.3 °F 76% 30.00 in 10.0 mi SW 6.9 mph - N/A   Clear
4:57 AM 72.5 °F - 65.3 °F 78% 30.00 in 10.0 mi SSW 4.6 mph - N/A   Clear
5:16 AM 71.8 °F - 65.3 °F 80% 30.00 in 10.0 mi SSW 4.6 mph - N/A   Clear
5:37 AM 71.6 °F - 65.7 °F 81% 30.00 in 10.0 mi SSW 3.5 mph - N/A   Clear
5:57 AM 70.9 °F - 65.7 °F 83% 30.00 in 10.0 mi SSW 3.5 mph - N/A   Clear
6:16 AM 70.9 °F - 65.7 °F 83% 30.00 in 10.0 mi SSW 3.5 mph - N/A   Clear
6:37 AM 71.1 °F - 65.8 °F 84% 30.00 in 10.0 mi South 3.5 mph - N/A   Clear
6:57 AM 71.4 °F - 65.8 °F 82% 30.00 in 10.0 mi SSW 3.5 mph - N/A   Clear
7:17 AM 72.0 °F - 66.0 °F 81% 30.00 in 10.0 mi WSW 5.8 mph - N/A   Clear
7:37 AM 72.5 °F - 65.8 °F 80% 30.01 in 10.0 mi SW 6.9 mph - N/A   Clear
7:57 AM 73.4 °F - 66.0 °F 78% 30.01 in 10.0 mi SW 8.1 mph - N/A   Clear
8:17 AM 74.7 °F - 66.4 °F 75% 30.01 in 10.0 mi SW 9.2 mph - N/A   Clear
8:37 AM 75.4 °F - 66.4 °F 73% 30.01 in 10.0 mi SW 11.5 mph - N/A   Clear
8:56 AM 75.7 °F - 66.7 °F 74% 30.01 in 10.0 mi SW 8.1 mph - N/A   Clear
9:17 AM 76.3 °F - 67.5 °F 74% 30.02 in 10.0 mi WSW 6.9 mph - N/A   Scattered Clouds
9:37 AM 75.6 °F - 67.3 °F 75% 30.03 in 7.0 mi SW 12.7 mph 17.3 mph N/A   Overcast
9:56 AM 75.4 °F - 67.1 °F 75% 30.03 in 7.0 mi SW 12.7 mph - N/A   Overcast
10:17 AM 76.1 °F - 67.3 °F 74% 30.03 in 7.0 mi SW 10.4 mph - N/A   Overcast
10:37 AM 77.2 °F - 67.5 °F 72% 30.02 in 7.0 mi SW 10.4 mph - N/A   Overcast
10:56 AM 78.4 °F - 67.8 °F 70% 30.02 in 7.0 mi SW 10.4 mph - N/A   Mostly Cloudy
11:17 AM 79.5 °F - 67.5 °F 66% 30.02 in 7.0 mi SW 10.4 mph 17.3 mph N/A   Mostly Cloudy
11:37 AM 79.9 °F - 67.6 °F 66% 30.02 in 10.0 mi SW 10.4 mph - N/A   Scattered Clouds
11:56 AM 80.8 °F 83.3 °F 67.5 °F 64% 30.02 in 10.0 mi SW 9.2 mph - N/A   Scattered Clouds
12:17 PM 82.0 °F 84.7 °F 67.5 °F 61% 30.02 in 10.0 mi WSW 10.4 mph - N/A   Scattered Clouds
12:37 PM 82.6 °F 85.3 °F 67.3 °F 60% 30.01 in 10.0 mi SW 9.2 mph 17.3 mph N/A   Scattered Clouds
12:56 PM 82.6 °F 84.9 °F 66.4 °F 58% 30.01 in 10.0 mi WSW 8.1 mph 17.3 mph N/A   Scattered Clouds
1:17 PM 83.1 °F 85.4 °F 66.4 °F 57% 30.01 in 10.0 mi SW 9.2 mph 19.6 mph N/A   Mostly Cloudy
1:37 PM 82.8 °F 84.7 °F 65.8 °F 56% 30.01 in 10.0 mi WSW 11.5 mph - N/A   Scattered Clouds
1:56 PM 84.2 °F 86.8 °F 66.9 °F 56% 30.00 in 10.0 mi SW 12.7 mph 20.7 mph N/A   Scattered Clouds
2:17 PM 83.8 °F 86.0 °F 65.8 °F 55% 29.99 in 10.0 mi WSW 11.5 mph 18.4 mph N/A   Clear
2:37 PM 83.7 °F 85.8 °F 65.8 °F 55% 29.98 in 10.0 mi SSW 10.4 mph 16.1 mph N/A   Scattered Clouds
2:57 PM 84.6 °F 86.6 °F 65.5 °F 53% 29.97 in 10.0 mi SW 15.0 mph 20.7 mph N/A   Scattered Clouds
3:17 PM 84.2 °F 86.1 °F 65.5 °F 53% 29.96 in 10.0 mi SSW 10.4 mph 19.6 mph N/A   Scattered Clouds
3:37 PM 84.4 °F 86.3 °F 65.7 °F 53% 29.96 in 10.0 mi WSW 15.0 mph 18.4 mph N/A   Clear
3:57 PM 83.7 °F 85.3 °F 64.9 °F 53% 29.96 in 10.0 mi WSW 13.8 mph 19.6 mph N/A   Clear
4:17 PM 84.2 °F 85.8 °F 64.8 °F 52% 29.95 in 10.0 mi WSW 12.7 mph 19.6 mph N/A   Clear
4:37 PM 84.4 °F 85.6 °F 63.7 °F 50% 29.94 in 10.0 mi WSW 15.0 mph 19.6 mph N/A   Clear
4:57 PM 84.7 °F 85.4 °F 62.4 °F 47% 29.93 in 10.0 mi WSW 10.4 mph - N/A   Clear
5:17 PM 84.9 °F 86.1 °F 63.7 °F 49% 29.93 in 10.0 mi West 10.4 mph - N/A   Clear
5:37 PM 84.6 °F 85.6 °F 63.5 °F 49% 29.92 in 10.0 mi West 10.4 mph - N/A   Clear
5:57 PM 84.6 °F 85.4 °F 62.8 °F 48% 29.93 in 10.0 mi SW 11.5 mph 17.3 mph N/A   Scattered Clouds
6:17 PM 84.2 °F 84.6 °F 61.3 °F 46% 29.93 in 10.0 mi SW 11.5 mph - N/A   Scattered Clouds
6:36 PM 83.8 °F 84.5 °F 62.1 °F 48% 29.93 in 10.0 mi SW 10.4 mph - N/A   Clear
6:57 PM 83.3 °F 83.7 °F 61.0 °F 47% 29.93 in 10.0 mi SW 12.7 mph 18.4 mph N/A   Clear
7:17 PM 82.8 °F 83.4 °F 61.5 °F 49% 29.94 in 10.0 mi West 12.7 mph - N/A   Clear
7:37 PM 82.0 °F 82.5 °F 60.8 °F 48% 29.93 in 10.0 mi WSW 17.3 mph 20.7 mph N/A   Clear
7:57 PM 81.1 °F 81.5 °F 59.0 °F 47% 29.93 in 10.0 mi WSW 9.2 mph 16.1 mph N/A   Clear
8:17 PM 80.4 °F 80.8 °F 57.9 °F 46% 29.93 in 10.0 mi WSW 9.2 mph - N/A   Scattered Clouds
8:37 PM 79.5 °F - 57.9 °F 47% 29.93 in 10.0 mi WSW 9.2 mph - N/A   Mostly Cloudy
8:57 PM 78.3 °F - 58.3 °F 50% 29.93 in 10.0 mi WSW 6.9 mph - N/A   Mostly Cloudy
9:17 PM 77.9 °F - 58.1 °F 50% 29.92 in 10.0 mi WSW 5.8 mph - N/A   Overcast
9:37 PM 77.0 °F - 58.8 °F 53% 29.91 in 10.0 mi Calm Calm - N/A   Mostly Cloudy
9:57 PM 75.2 °F - 59.7 °F 58% 29.91 in 10.0 mi SW 5.8 mph - N/A   Scattered Clouds
10:17 PM 75.9 °F - 59.9 °F 57% 29.91 in 10.0 mi South 3.5 mph - N/A   Scattered Clouds
10:37 PM 75.6 °F - 59.9 °F 58% 29.91 in 10.0 mi Calm Calm - N/A   Scattered Clouds
10:57 PM 74.5 °F - 60.4 °F 61% 29.89 in 10.0 mi Calm Calm - N/A   Clear
11:17 PM 70.5 °F - 62.1 °F 74% 29.90 in 10.0 mi Calm Calm - N/A   Clear
11:37 PM 68.9 °F - 62.8 °F 81% 29.89 in 10.0 mi Calm Calm - N/A   Clear
11:57 PM 69.1 °F - 61.9 °F 78% 29.91 in 10.0 mi Calm Calm - N/A   Clear